Powrót do katalogu

ALSAT 1

AktywnyNaukaSSO
NORAD 27559·PAYLOAD·🇩🇿 Algeria

Wystrzelony Nov 28, 2002 z Plesetsk Cosmodrome

Loading…

Następne Przeloty (najbliższe 24 godziny)

TLE

ŚwieżeSource: Space-Track

Epoka: Sep 14, 2026, 00:16 UTC

1 27559U 02054A   26257.01120567  .00000510  00000-0  77620-4 0  9995
2 27559  98.2500  83.7835 0019751   0.1845 359.9368 14.78315946276375

Śledź ALSAT 1 w czasie rzeczywistym z AllMySat

Download on the App Store